User: anonymous   Login
Location: Unspecified
(0.0000°N, 0.0000°E)
Time: 12:43:11
(UTC+00:00)
Language:

ARIANE 5 DEB (SYLDA) - Orbit

View from above orbital plane
View from above orbital plane
View from above satellite
View from above satellite

Ground track
Ground track

The orbit data is extracted from the following two-line orbital elements,

1 26722U 01011D   17262.81018299 -.00000177 +00000-0 -47844-2 0  9994
2 26722 002.3246 352.7893 7067517 082.8159 264.6678 02.22871667134683
Epoch (UTC): 19 September 2017 19:26:39
Eccentricity: 0.7067517
inclination: 2.3246°
perigee height: 882 km
apogee height: 35875 km
right ascension of ascending node: 352.7893°
argument of perigee: 82.8159°
revolutions per day: 2.22871667
mean anomaly at epoch: 264.6678°
orbit number at epoch: 13468

The dashed part of the orbit path shows where the satellite is in the earth's shadow,  

DLR